Regional Weather Roundup
Issued by NWS Albany, NY

Home | Current Version | Previous Version | Graphics & Text | Print | Product List | Glossary Off
Versions: 1 2 3 4 5 6 7 8 9 10 11 12 13 14 15 16 17 18 19 20 21 22 23 24 25 26 27 28 29 30 31 32 33 34 35 36 37 38 39 40 41 42 43 44 45 46 47 48 49 50

000
ASUS41 KALY 010610
RWRALY

NEW YORK STATE HOURLY WEATHER ROUNDUP
NATIONAL WEATHER SERVICE ALBANY NY
200 AM EDT TUE SEP 01 2015

NOTE: "FAIR" INDICATES FEW OR NO CLOUDS BELOW 12,000 FEET WITH NO
SIGNIFICANT WEATHER AND/OR NO OBSTRUCTIONS TO VISIBILITY.

NYZ032-033-038>043-046>054-057>066-NYZ062>081-010700-
EAST


CITY           SKY/WX    TMP DP  RH WIND       PRES   REMARKS
ALBANY         FAIR      66  61  84 CALM      30.02R
GLENS FALLS    FAIR      63  60  90 CALM      30.01S
POUGHKEEPSIE   FAIR      67  65  93 CALM      30.01R
NEWBURGH       CLEAR     68  66  94 CALM      30.04
MONTGOMERY     FAIR      72  66  81 NW6       30.02S
WHITE PLAINS   FAIR      74  66  76 NW5       30.01S
ISLIP          FAIR      76  68  76 N7        29.98S
NEW YORK CITY  FAIR      81  67  62 NW7       29.99S
CENTRAL PARK   FAIR      80  66  62 CALM      30.03S
$$

NYZ005>009-017-018-044>046-055-056-010700-
CENTRAL


CITY           SKY/WX    TMP DP  RH WIND       PRES   REMARKS
FULTON         FAIR      64  61  90 CALM      30.03S FOG
SYRACUSE       MOCLDY    67  64  90 CALM      30.03S
ROME           FAIR      62  60  93 CALM      30.04F
ELMIRA         FOG       59  59 100 SW3       30.07S VSB 1/4
BINGHAMTON     MOCLDY    66  64  93 W3        30.09S FOG
MONTICELLO     FAIR      64  63  94 CALM      30.09S
$$

NYZ026>034-041>043-010700-
NORTH


CITY           SKY/WX    TMP DP  RH WIND       PRES   REMARKS
WATERTOWN      FAIR      62  61  96 E5        30.02R FOG
FORT DRUM      NOT AVBL
MASSENA        FOG       58  56  93 CALM      30.01F VSB 1/4
SARANAC LAKE   FOG       53  52  96 CALM      30.04F VSB 1/2
PLATTSBURGH    FAIR      66  60  81 W6        29.98F
$$

NYZ001>004-010>016-019>021-010700-
WEST


CITY           SKY/WX    TMP DP  RH WIND       PRES   REMARKS
NIAGARA FALLS  FAIR      67  66  97 SW6       30.05R FOG
BUFFALO        FAIR      71  68  90 SW9       30.06S FOG
DUNKIRK        FAIR      68  65  90 SW7       30.08R
JAMESTOWN      FAIR      63  61  94 SW7       30.12S
WELLSVILLE     FAIR      65  61  87 SW3       30.14F FOG
ROCHESTER      MOCLDY    67  64  90 SW6       30.05S FOG
PENN YAN       FAIR      67  65  93 SW5       30.07S
$$

             KEY
       WCI = WIND CHILL INDEX
       VSB = VISIBILITY
       HX  = HEAT INDEX
$$



USA.gov is the U.S. government's official web portal to all federal, state and local government web resources and services.